Cedar Rapids, IA

9:50 PM CST on December 12, 2017 (GMT -0600)
The Eastern Iowa Airport

Weather History for KCID - June, 2013

Change the Weather History Date:

Tuesday, June 25, 2013

  Actual Average Record
Temperature  
Mean Temperature 77 °F 72 °F  
Max Temperature 86 °F 83 °F 102 °F (1931)
Min Temperature 68 °F 61 °F 43 °F (2004)
Degree Days  
Heating Degree Days 0 0  
Month to date heating degree days 28 29  
Since 1 June heating degree days 28 29  
Since 1 July heating degree days 6997 6866  
Cooling Degree Days 12 7  
Month to date cooling degree days 133 128  
Year to date cooling degree days 207 177  
Since 1 June cooling degree days 133 128  
Growing Degree Days 27 (Base 50)    
Moisture  
Dew Point 71 °F    
Average Humidity 81    
Maximum Humidity 97    
Minimum Humidity 65    
Precipitation  
Precipitation 0.01 in 0.18 in 2.59 in (2003)
Month to date precipitation 4.50 4.04  
Year to date precipitation 24.69 15.48  
Sea Level Pressure  
Sea Level Pressure 29.80 in    
Wind  
Wind Speed 9 mph (South)    
Max Wind Speed 18 mph    
Max Gust Speed 25 mph    
Visibility 9 miles    
Events Rain , Thunderstorm    
T = Trace of Precipitation, MM = Missing Value Source: NWS Daily Summary

Daily Weather History Graph

Daily Weather History Graph

Search for Another Location

Airport or City:

Trip Planner

Search our weather history database for the weather conditions in past years. The results will help you decide how hot, cold, wet, or windy it might be!

Date:

Astronomy

Jun. 25, 2013 Rise Set
Actual Time 5:32 AM CDT 8:46 PM CDT
Civil Twilight 4:58 AM CDT 9:20 PM CDT
Nautical Twilight 4:14 AM CDT 10:04 PM CDT
Astronomical Twilight 3:21 AM CDT 10:57 PM CDT
Moon 10:28 PM CDT (6/25) 8:15 AM CDT (6/25)
Length of Visible Light 16h 21m
Length of Day
15h 13m
Waning Gibbous, 92% of the Moon is Illuminated
Jun 25
Waning Gibbous
Jun 29
Last Quarter
Jul 8
New
Jul 15
First Quarter
Jul 22
Full

Hourly Weather History & Observations

Time (CDT) Temp. Heat Index Dew Point Humidity Pressure Visibility Wind Dir Wind Speed Gust Speed Precip Events Conditions
12:52 AM 68.0 °F - 64.0 °F 87% 29.85 in 10.0 mi SSE 6.9 mph - N/A   Clear
1:52 AM 69.1 °F - 66.0 °F 90% 29.82 in 10.0 mi South 6.9 mph - N/A   Clear
2:52 AM 69.1 °F - 66.9 °F 93% 29.83 in 10.0 mi South 6.9 mph - N/A   Clear
3:52 AM 68.0 °F - 66.9 °F 96% 29.82 in 8.0 mi SSE 5.8 mph - N/A   Partly Cloudy
4:52 AM 70.0 °F - 68.0 °F 93% 29.80 in 8.0 mi South 9.2 mph - N/A   Mostly Cloudy
5:36 AM 69.8 °F - 68.0 °F 94% 29.83 in 8.0 mi SW 4.6 mph - N/A Thunderstorm Thunderstorm
5:52 AM 70.0 °F - 68.0 °F 93% 29.81 in 8.0 mi South 9.2 mph - 0.01 in Rain , Thunderstorm Light Thunderstorms and Rain
6:12 AM 71.6 °F - 68.0 °F 88% 29.82 in 8.0 mi South 6.9 mph - 0.00 in   Mostly Cloudy
6:52 AM 71.1 °F - 69.1 °F 93% 29.82 in 6.0 mi South 6.9 mph - 0.00 in   Clear
7:52 AM 72.0 °F - 69.1 °F 91% 29.86 in 5.0 mi NE 9.2 mph - N/A   Clear
8:52 AM 73.0 °F - 71.1 °F 93% 29.87 in 6.0 mi ESE 6.9 mph - N/A   Clear
9:52 AM 77.0 °F - 73.0 °F 88% 29.84 in 8.0 mi SSE 8.1 mph - 0.00 in   Clear
10:52 AM 79.0 °F - 73.0 °F 82% 29.83 in 8.0 mi South 11.5 mph 19.6 mph N/A   Clear
11:52 AM 79.0 °F - 72.0 °F 79% 29.83 in 9.0 mi South 15.0 mph 25.3 mph N/A   Clear
12:52 PM 80.1 °F 83.8 °F 72.0 °F 76% 29.80 in 9.0 mi South 10.4 mph 18.4 mph N/A   Clear
1:52 PM 82.0 °F 87.4 °F 73.0 °F 74% 29.80 in 10.0 mi SSW 17.3 mph 24.2 mph N/A   Clear
2:52 PM 82.0 °F 87.4 °F 73.0 °F 74% 29.80 in 9.0 mi SSW 10.4 mph 20.7 mph N/A   Partly Cloudy
3:52 PM 84.0 °F 90.2 °F 73.0 °F 69% 29.78 in 10.0 mi SSW 10.4 mph - N/A   Clear
4:52 PM 86.0 °F 93.0 °F 73.0 °F 65% 29.76 in 10.0 mi South 9.2 mph - N/A   Clear
5:52 PM 84.9 °F 92.1 °F 73.9 °F 69% 29.75 in 10.0 mi South 4.6 mph - N/A   Clear
6:52 PM 82.9 °F 88.8 °F 73.0 °F 72% 29.75 in 10.0 mi South 8.1 mph - N/A   Clear
7:52 PM 81.0 °F 85.8 °F 73.0 °F 77% 29.76 in 10.0 mi South 8.1 mph - N/A   Scattered Clouds
8:52 PM 79.0 °F - 72.0 °F 79% 29.75 in 10.0 mi South 5.8 mph - N/A   Clear
9:52 PM 77.0 °F - 72.0 °F 84% 29.76 in 10.0 mi SSE 5.8 mph - N/A   Clear
10:52 PM 77.0 °F - 72.0 °F 84% 29.75 in 10.0 mi SE 4.6 mph - N/A   Scattered Clouds
11:52 PM 78.1 °F - 72.0 °F 81% 29.73 in 10.0 mi SSE 6.9 mph - N/A   Mostly Cloudy